Location: Gad�tanya
(48.0500°N, 20.8500°E)
Time: 11:42:49
(UTC+00:00)

Cosmos 1766 Rocket - Pass Details

Date: 05 July 2020
Orbit: 605 x 633 km, 82.5° (Epoch: 15 August)

Event Time Altitude Azimuth Distance (km) Brightness Sun altitude
Exits shadow 22:44:22 28° 236° (SW) 1,163 4.6 -19.3°
Maximum altitude 22:46:07 41° 285° (WNW) 899 4.4 -19.3°
Drops below altitude 10° 22:50:19 10° 357° (N) 2,001 7.4 -19.3°
Sets 22:52:41 0° 4° (N) 2,917 8.7 -19.2°
